Time,TemperatureF,DewpointF,PressureIn,WindDirection,WindDirectionDegrees,WindSpeedMPH,WindSpeedGustMPH,Humidity,HourlyPrecipIn,Conditions,Clouds,dailyrainin,SoftwareType,DateUTC
2013-05-31 00:01:00,60.0,58.6,30.02,West,259,0.0,0.0,95,0.00,,---,0.00,VWS V14.01,2013-05-31 04:01:00,
2013-05-31 00:06:00,59.9,58.2,30.03,West,260,0.0,0.0,94,0.00,,---,0.00,VWS V14.01,2013-05-31 04:06:00,
2013-05-31 00:11:00,59.7,58.0,30.02,West,260,0.0,0.0,94,0.00,,---,0.00,VWS V14.01,2013-05-31 04:11:00,
2013-05-31 00:16:00,59.6,57.9,30.02,SSW,201,0.0,0.0,94,0.00,,---,0.00,VWS V14.01,2013-05-31 04:16:00,
2013-05-31 00:21:00,59.4,57.7,30.02,SSW,201,0.0,0.0,94,0.00,,---,0.00,VWS V14.01,2013-05-31 04:21:00,
2013-05-31 00:26:00,59.2,57.5,30.02,NE,55,0.0,0.0,94,0.00,,---,0.00,VWS V14.01,2013-05-31 04:26:00,
2013-05-31 00:31:00,59.2,57.8,30.02,SE,125,0.0,0.0,95,0.00,,---,0.00,VWS V14.01,2013-05-31 04:31:00,
2013-05-31 00:36:00,59.0,57.3,30.02,WNW,285,1.0,1.0,94,0.00,,---,0.00,VWS V14.01,2013-05-31 04:36:00,
2013-05-31 00:41:00,59.3,57.9,30.02,ESE,114,0.0,0.0,95,0.00,,---,0.00,VWS V14.01,2013-05-31 04:41:00,
2013-05-31 00:46:00,59.3,57.9,30.02,West,264,2.0,2.0,95,0.00,,---,0.00,VWS V14.01,2013-05-31 04:46:00,
2013-05-31 00:51:00,59.0,57.6,30.02,ESE,120,2.0,2.0,95,0.00,,---,0.00,VWS V14.01,2013-05-31 04:51:00,
2013-05-31 00:56:00,58.9,57.5,30.02,West,271,1.0,1.0,95,0.00,,---,0.00,VWS V14.01,2013-05-31 04:56:00,
2013-05-31 01:01:00,59.0,57.6,30.02,West,271,0.0,0.0,95,0.00,,---,0.00,VWS V14.01,2013-05-31 05:01:00,
2013-05-31 01:06:00,58.8,57.4,30.02,East,95,1.0,1.0,95,0.00,,---,0.00,VWS V14.01,2013-05-31 05:06:00,
2013-05-31 01:11:00,58.7,57.3,30.02,East,94,0.0,0.0,95,0.00,,---,0.00,VWS V14.01,2013-05-31 05:11:00,
2013-05-31 01:16:00,58.5,57.1,30.02,East,96,0.0,0.0,95,0.00,,---,0.00,VWS V14.01,2013-05-31 05:16:00,
2013-05-31 01:21:00,58.3,56.9,30.02,East,96,1.0,1.0,95,0.00,,---,0.00,VWS V14.01,2013-05-31 05:21:00,
2013-05-31 01:26:00,58.3,56.9,30.02,SE,141,1.0,1.0,95,0.00,,---,0.00,VWS V14.01,2013-05-31 05:26:00,
2013-05-31 01:30:00,58.1,56.7,30.02,SE,134,3.0,3.0,95,0.00,,---,0.00,VWS V14.01,2013-05-31 05:30:00,
2013-05-31 01:35:00,58.2,56.8,30.02,SE,125,0.0,0.0,95,0.00,,---,0.00,VWS V14.01,2013-05-31 05:35:00,
2013-05-31 01:40:00,58.0,56.6,30.02,SE,125,0.0,0.0,95,0.00,,---,0.00,VWS V14.01,2013-05-31 05:40:00,
2013-05-31 01:45:00,58.0,56.6,30.02,SW,224,1.0,1.0,95,0.00,,---,0.00,VWS V14.01,2013-05-31 05:45:00,
2013-05-31 01:50:00,57.8,56.4,30.02,East,88,0.0,1.0,95,0.00,,---,0.00,VWS V14.01,2013-05-31 05:50:00,
2013-05-31 01:55:00,58.0,56.6,30.02,ENE,69,2.0,3.0,95,0.00,,---,0.00,VWS V14.01,2013-05-31 05:55:00,
2013-05-31 02:00:00,57.9,56.5,30.02,SE,142,1.0,1.0,95,0.00,,---,0.00,VWS V14.01,2013-05-31 06:00:00,
2013-05-31 02:05:00,57.8,56.4,30.02,SSW,207,0.0,0.0,95,0.00,,---,0.00,VWS V14.01,2013-05-31 06:05:00,
2013-05-31 02:10:00,57.7,56.3,30.02,West,274,3.0,3.0,95,0.00,,---,0.00,VWS V14.01,2013-05-31 06:10:00,
2013-05-31 02:15:00,57.9,56.5,30.01,West,278,5.0,5.0,95,0.00,,---,0.00,VWS V14.01,2013-05-31 06:15:00,
2013-05-31 02:20:00,58.0,56.6,30.01,South,188,1.0,5.0,95,0.00,,---,0.00,VWS V14.01,2013-05-31 06:20:00,
2013-05-31 02:25:00,58.6,57.5,30.02,East,88,1.0,4.0,96,0.00,,---,0.00,VWS V14.01,2013-05-31 06:25:00,
2013-05-31 02:30:00,58.7,57.6,30.02,NNE,29,0.0,1.0,96,0.00,,---,0.00,VWS V14.01,2013-05-31 06:30:00,
2013-05-31 02:35:00,58.4,57.0,30.01,West,281,1.0,1.0,95,0.00,,---,0.00,VWS V14.01,2013-05-31 06:35:00,
2013-05-31 02:40:00,58.2,56.8,30.02,West,281,0.0,1.0,95,0.00,,---,0.00,VWS V14.01,2013-05-31 06:40:00,
2013-05-31 02:45:00,58.0,56.6,30.02,West,264,2.0,2.0,95,0.00,,---,0.00,VWS V14.01,2013-05-31 06:45:00,
2013-05-31 02:50:00,57.9,56.5,30.02,SW,235,2.0,2.0,95,0.00,,---,0.00,VWS V14.01,2013-05-31 06:50:00,
2013-05-31 02:55:00,57.6,56.2,30.02,West,278,2.0,2.0,95,0.00,,---,0.00,VWS V14.01,2013-05-31 06:55:00,
2013-05-31 03:00:00,57.6,56.2,30.02,SE,131,1.0,2.0,95,0.00,,---,0.00,VWS V14.01,2013-05-31 07:00:00,
2013-05-31 03:05:00,57.5,56.1,30.02,NNE,22,1.0,1.0,95,0.00,,---,0.00,VWS V14.01,2013-05-31 07:05:00,
2013-05-31 03:10:00,57.5,56.1,30.02,WNW,283,3.0,3.0,95,0.00,,---,0.00,VWS V14.01,2013-05-31 07:10:00,
2013-05-31 03:15:00,57.5,56.1,30.02,ESE,112,0.0,1.0,95,0.00,,---,0.00,VWS V14.01,2013-05-31 07:15:00,
2013-05-31 03:20:00,57.4,56.0,30.02,SW,232,0.0,1.0,95,0.00,,---,0.00,VWS V14.01,2013-05-31 07:20:00,
2013-05-31 03:25:00,57.2,55.8,30.03,East,101,2.0,2.0,95,0.00,,---,0.00,VWS V14.01,2013-05-31 07:25:00,
2013-05-31 03:30:00,57.1,55.7,30.02,ESE,123,3.0,3.0,95,0.00,,---,0.00,VWS V14.01,2013-05-31 07:30:00,
2013-05-31 03:35:00,57.2,55.8,30.02,SE,129,0.0,0.0,95,0.00,,---,0.00,VWS V14.01,2013-05-31 07:35:00,
2013-05-31 03:40:00,57.0,55.6,30.03,SE,128,0.0,0.0,95,0.00,,---,0.00,VWS V14.01,2013-05-31 07:40:00,
2013-05-31 03:45:00,57.0,55.6,30.03,SE,128,0.0,1.0,95,0.00,,---,0.00,VWS V14.01,2013-05-31 07:45:00,
2013-05-31 03:50:00,56.8,55.4,30.03,SE,129,0.0,0.0,95,0.00,,---,0.00,VWS V14.01,2013-05-31 07:50:00,
2013-05-31 03:55:00,56.9,55.5,30.03,WSW,240,0.0,0.0,95,0.00,,---,0.00,VWS V14.01,2013-05-31 07:55:00,
2013-05-31 04:00:00,56.7,55.3,30.03,East,88,0.0,0.0,95,0.00,,---,0.00,VWS V14.01,2013-05-31 08:00:00,
2013-05-31 04:05:00,56.6,55.2,30.03,East,87,0.0,1.0,95,0.00,,---,0.00,VWS V14.01,2013-05-31 08:05:00,
2013-05-31 04:10:00,56.4,55.0,30.03,East,87,0.0,0.0,95,0.00,,---,0.00,VWS V14.01,2013-05-31 08:10:00,
2013-05-31 04:15:00,56.3,54.9,30.03,ESE,111,1.0,1.0,95,0.00,,---,0.00,VWS V14.01,2013-05-31 08:15:00,
2013-05-31 04:20:00,56.3,55.2,30.03,ESE,112,0.0,0.0,96,0.00,,---,0.00,VWS V14.01,2013-05-31 08:20:00,
2013-05-31 04:25:00,56.3,55.2,30.03,ESE,112,0.0,0.0,96,0.00,,---,0.00,VWS V14.01,2013-05-31 08:25:00,
2013-05-31 04:30:00,56.2,55.1,30.03,ESE,111,0.0,0.0,96,0.00,,---,0.00,VWS V14.01,2013-05-31 08:30:00,
2013-05-31 04:35:00,56.1,55.0,30.03,ESE,112,0.0,0.0,96,0.00,,---,0.00,VWS V14.01,2013-05-31 08:35:00,
2013-05-31 04:40:00,56.0,54.6,30.03,SE,125,1.0,1.0,95,0.00,,---,0.00,VWS V14.01,2013-05-31 08:40:00,
2013-05-31 04:45:00,55.9,54.8,30.03,WSW,255,1.0,1.0,96,0.00,,---,0.00,VWS V14.01,2013-05-31 08:45:00,
2013-05-31 04:50:00,56.0,54.9,30.03,WSW,255,0.0,1.0,96,0.00,,---,0.00,VWS V14.01,2013-05-31 08:50:00,
2013-05-31 04:55:00,55.8,54.7,30.03,SE,133,0.0,0.0,96,0.00,,---,0.00,VWS V14.01,2013-05-31 08:55:00,
2013-05-31 05:00:00,55.7,54.6,30.03,SE,134,0.0,0.0,96,0.00,,---,0.00,VWS V14.01,2013-05-31 09:00:00,
2013-05-31 05:05:00,55.9,54.8,30.03,SE,136,1.0,1.0,96,0.00,,---,0.00,VWS V14.01,2013-05-31 09:05:00,
2013-05-31 05:10:00,55.5,54.1,30.03,West,278,0.0,0.0,95,0.00,,---,0.00,VWS V14.01,2013-05-31 09:10:00,
2013-05-31 05:15:00,55.5,54.4,30.03,West,262,1.0,1.0,96,0.00,,---,0.00,VWS V14.01,2013-05-31 09:15:00,
2013-05-31 05:20:00,55.4,54.3,30.03,West,262,0.0,1.0,96,0.00,,---,0.00,VWS V14.01,2013-05-31 09:20:00,
2013-05-31 05:25:00,55.4,54.3,30.03,SSW,204,0.0,0.0,96,0.00,,---,0.00,VWS V14.01,2013-05-31 09:25:00,
2013-05-31 05:30:00,55.3,54.2,30.03,SSW,204,0.0,0.0,96,0.00,,---,0.00,VWS V14.01,2013-05-31 09:30:00,
2013-05-31 05:35:00,55.5,54.4,30.03,SE,134,0.0,0.0,96,0.00,,---,0.00,VWS V14.01,2013-05-31 09:35:00,
2013-05-31 05:40:00,55.8,54.7,30.03,ESE,122,1.0,2.0,96,0.00,,---,0.00,VWS V14.01,2013-05-31 09:40:00,
2013-05-31 05:45:00,55.9,54.8,30.04,West,263,1.0,2.0,96,0.00,,---,0.00,VWS V14.01,2013-05-31 09:45:00,
2013-05-31 05:50:00,56.3,55.2,30.03,West,263,0.0,1.0,96,0.00,,---,0.00,VWS V14.01,2013-05-31 09:50:00,
2013-05-31 05:55:00,56.6,55.5,30.04,ENE,76,1.0,1.0,96,0.00,,---,0.00,VWS V14.01,2013-05-31 09:55:00,
2013-05-31 06:00:00,56.6,55.5,30.04,WSW,253,0.0,0.0,96,0.00,,---,0.00,VWS V14.01,2013-05-31 10:00:00,
2013-05-31 06:05:00,56.5,55.4,30.04,WSW,253,1.0,1.0,96,0.00,,---,0.00,VWS V14.01,2013-05-31 10:05:00,
2013-05-31 06:10:00,56.7,55.6,30.04,East,94,0.0,1.0,96,0.00,,---,0.00,VWS V14.01,2013-05-31 10:10:00,
2013-05-31 06:15:00,57.0,55.9,30.04,East,96,0.0,1.0,96,0.00,,---,0.00,VWS V14.01,2013-05-31 10:15:00,
2013-05-31 06:20:00,57.2,56.1,30.05,ESE,108,1.0,1.0,96,0.00,,---,0.00,VWS V14.01,2013-05-31 10:20:00,
2013-05-31 06:25:00,57.6,56.5,30.05,SE,128,0.0,1.0,96,0.00,,---,0.00,VWS V14.01,2013-05-31 10:25:00,
2013-05-31 06:30:00,58.0,56.9,30.05,WNW,286,1.0,1.0,96,0.00,,---,0.00,VWS V14.01,2013-05-31 10:30:00,
2013-05-31 06:35:00,58.6,57.5,30.04,East,96,0.0,1.0,96,0.00,,---,0.00,VWS V14.01,2013-05-31 10:35:00,
2013-05-31 06:40:00,58.8,57.7,30.04,East,94,0.0,1.0,96,0.00,,---,0.00,VWS V14.01,2013-05-31 10:40:00,
2013-05-31 06:45:00,59.6,58.8,30.04,East,94,0.0,0.0,97,0.00,,---,0.00,VWS V14.01,2013-05-31 10:45:00,
2013-05-31 06:50:00,60.0,58.9,30.04,East,96,1.0,1.0,96,0.00,,---,0.00,VWS V14.01,2013-05-31 10:50:00,
2013-05-31 06:55:00,60.7,59.6,30.04,East,96,0.0,1.0,96,0.00,,---,0.00,VWS V14.01,2013-05-31 10:55:00,
2013-05-31 07:00:00,61.4,60.2,30.04,East,96,1.0,1.0,96,0.00,,---,0.00,VWS V14.01,2013-05-31 11:00:00,
2013-05-31 07:05:00,62.1,61.0,30.04,East,96,1.0,1.0,96,0.00,,---,0.00,VWS V14.01,2013-05-31 11:05:00,
2013-05-31 07:10:00,62.8,61.7,30.04,East,101,1.0,1.0,96,0.00,,---,0.00,VWS V14.01,2013-05-31 11:10:00,
2013-05-31 07:15:00,63.4,62.2,30.04,ENE,60,2.0,2.0,96,0.00,,---,0.00,VWS V14.01,2013-05-31 11:15:00,
2013-05-31 07:20:00,64.1,62.6,30.04,East,99,2.0,2.0,95,0.00,,---,0.00,VWS V14.01,2013-05-31 11:20:00,
2013-05-31 07:25:00,64.7,62.9,30.04,NE,49,1.0,1.0,94,0.00,,---,0.00,VWS V14.01,2013-05-31 11:25:00,
2013-05-31 07:30:00,65.5,63.4,30.03,ESE,122,2.0,2.0,93,0.00,,---,0.00,VWS V14.01,2013-05-31 11:30:00,
2013-05-31 07:35:00,66.7,64.0,30.03,ENE,64,0.0,0.0,91,0.00,,---,0.00,VWS V14.01,2013-05-31 11:35:00,
2013-05-31 07:40:00,67.6,63.9,30.03,NE,55,1.0,2.0,88,0.00,,---,0.00,VWS V14.01,2013-05-31 11:40:00,
2013-05-31 07:45:00,68.0,64.0,30.03,West,269,0.0,1.0,87,0.00,,---,0.00,VWS V14.01,2013-05-31 11:45:00,
2013-05-31 07:50:00,68.9,64.9,30.02,SE,138,1.0,2.0,87,0.00,,---,0.00,VWS V14.01,2013-05-31 11:50:00,
2013-05-31 07:55:00,69.8,65.8,30.02,SE,146,2.0,2.0,87,0.00,,---,0.00,VWS V14.01,2013-05-31 11:55:00,
2013-05-31 08:00:00,70.8,66.4,30.02,East,79,2.0,2.0,86,0.00,,---,0.00,VWS V14.01,2013-05-31 12:00:00,
2013-05-31 08:05:00,72.0,67.2,30.02,ENE,63,2.0,2.0,85,0.00,,---,0.00,VWS V14.01,2013-05-31 12:05:00,
2013-05-31 08:10:00,72.0,66.9,30.02,West,275,1.0,1.0,84,0.00,,---,0.00,VWS V14.01,2013-05-31 12:10:00,
2013-05-31 08:15:00,73.0,67.9,30.02,ENE,61,1.0,1.0,84,0.00,,---,0.00,VWS V14.01,2013-05-31 12:15:00,
2013-05-31 08:20:00,73.9,68.1,30.02,East,95,1.0,1.0,82,0.00,,---,0.00,VWS V14.01,2013-05-31 12:20:00,
2013-05-31 08:25:00,74.3,68.8,30.02,WNW,297,0.0,1.0,83,0.00,,---,0.00,VWS V14.01,2013-05-31 12:25:00,
2013-05-31 08:30:00,75.4,68.8,30.02,ENE,64,2.0,2.0,80,0.00,,---,0.00,VWS V14.01,2013-05-31 12:30:00,
2013-05-31 08:35:00,76.1,69.5,30.02,West,277,3.0,3.0,80,0.00,,---,0.00,VWS V14.01,2013-05-31 12:35:00,
2013-05-31 08:40:00,77.2,68.7,30.02,ENE,65,3.0,3.0,75,0.00,,---,0.00,VWS V14.01,2013-05-31 12:40:00,
2013-05-31 08:45:00,77.9,69.3,30.02,NNW,346,4.0,4.0,75,0.00,,---,0.00,VWS V14.01,2013-05-31 12:45:00,
2013-05-31 08:50:00,79.0,68.0,30.02,ENE,60,3.0,3.0,69,0.00,,---,0.00,VWS V14.01,2013-05-31 12:50:00,
2013-05-31 08:54:00,80.2,66.9,30.02,NNE,13,1.0,1.0,64,0.00,,---,0.00,VWS V14.01,2013-05-31 12:54:00,
2013-05-31 08:59:00,80.7,66.5,30.02,NNE,32,0.0,0.0,62,0.00,,---,0.00,VWS V14.01,2013-05-31 12:59:00,
2013-05-31 09:04:00,80.6,65.9,30.02,North,8,0.0,0.0,61,0.00,,---,0.00,VWS V14.01,2013-05-31 13:04:00,
2013-05-31 09:09:00,80.6,65.0,30.01,East,98,2.0,2.0,59,0.00,,---,0.00,VWS V14.01,2013-05-31 13:09:00,
2013-05-31 09:14:00,81.0,64.8,30.01,WSW,250,2.0,2.0,58,0.00,,---,0.00,VWS V14.01,2013-05-31 13:14:00,
2013-05-31 09:19:00,81.4,65.2,30.01,NW,318,3.0,3.0,58,0.00,,---,0.00,VWS V14.01,2013-05-31 13:19:00,
2013-05-31 09:24:00,82.0,64.3,30.01,East,101,1.0,1.0,55,0.00,,---,0.00,VWS V14.01,2013-05-31 13:24:00,
2013-05-31 09:29:00,82.6,63.8,30.01,East,89,2.0,2.0,53,0.00,,---,0.00,VWS V14.01,2013-05-31 13:29:00,
2013-05-31 09:34:00,82.7,64.4,30.01,NW,323,1.0,4.0,54,0.00,,---,0.00,VWS V14.01,2013-05-31 13:34:00,
2013-05-31 09:39:00,82.3,63.5,30.01,ENE,77,3.0,4.0,53,0.00,,---,0.00,VWS V14.01,2013-05-31 13:39:00,
2013-05-31 09:44:00,82.4,64.6,30.00,NW,305,1.0,4.0,55,0.00,,---,0.00,VWS V14.01,2013-05-31 13:44:00,
2013-05-31 09:49:00,82.3,64.5,30.00,SSW,210,2.0,4.0,55,0.00,,---,0.00,VWS V14.01,2013-05-31 13:49:00,
2013-05-31 09:54:00,82.4,63.6,30.00,North,359,1.0,2.0,53,0.00,,---,0.00,VWS V14.01,2013-05-31 13:54:00,
2013-05-31 09:59:00,83.1,65.3,30.00,NW,315,0.0,4.0,55,0.00,,---,0.00,VWS V14.01,2013-05-31 13:59:00,
2013-05-31 10:04:00,84.5,65.0,29.99,NE,56,0.0,1.0,52,0.00,,---,0.00,VWS V14.01,2013-05-31 14:04:00,
2013-05-31 10:09:00,85.3,64.6,29.99,ESE,108,4.0,5.0,50,0.00,,---,0.00,VWS V14.01,2013-05-31 14:09:00,
2013-05-31 10:14:00,85.6,64.3,29.99,SW,231,3.0,3.0,49,0.00,,---,0.00,VWS V14.01,2013-05-31 14:14:00,
2013-05-31 10:19:00,85.0,65.4,29.99,ESE,103,0.0,1.0,52,0.00,,---,0.00,VWS V14.01,2013-05-31 14:19:00,
2013-05-31 10:24:00,85.5,65.9,29.99,NW,319,2.0,4.0,52,0.00,,---,0.00,VWS V14.01,2013-05-31 14:24:00,
2013-05-31 10:29:00,85.2,64.5,29.99,SE,129,1.0,3.0,50,0.00,,---,0.00,VWS V14.01,2013-05-31 14:29:00,
2013-05-31 10:34:00,85.0,64.3,29.99,SW,232,3.0,4.0,50,0.00,,---,0.00,VWS V14.01,2013-05-31 14:34:00,
2013-05-31 10:39:00,85.5,65.3,29.98,West,273,2.0,2.0,51,0.00,,---,0.00,VWS V14.01,2013-05-31 14:39:00,
2013-05-31 10:44:00,86.1,64.1,29.98,NNW,330,0.0,1.0,48,0.00,,---,0.00,VWS V14.01,2013-05-31 14:44:00,
2013-05-31 10:49:00,86.3,64.3,29.98,WNW,297,2.0,5.0,48,0.00,,---,0.00,VWS V14.01,2013-05-31 14:49:00,
2013-05-31 10:54:00,86.3,64.9,29.98,NNE,13,2.0,2.0,49,0.00,,---,0.00,VWS V14.01,2013-05-31 14:54:00,
2013-05-31 10:59:00,86.5,65.1,29.97,WNW,284,1.0,2.0,49,0.00,,---,0.00,VWS V14.01,2013-05-31 14:59:00,
2013-05-31 11:04:00,86.8,64.8,29.98,SSE,153,1.0,6.0,48,0.00,,---,0.00,VWS V14.01,2013-05-31 15:04:00,
2013-05-31 11:09:00,87.7,66.2,29.98,NE,54,3.0,3.0,49,0.00,,---,0.00,VWS V14.01,2013-05-31 15:09:00,
2013-05-31 11:14:00,88.2,64.2,29.97,SE,126,1.0,4.0,45,0.00,,---,0.00,VWS V14.01,2013-05-31 15:14:00,
2013-05-31 11:19:00,87.6,62.4,29.98,NE,36,1.0,7.0,43,0.00,,---,0.00,VWS V14.01,2013-05-31 15:19:00,
2013-05-31 11:24:00,88.2,63.6,29.97,West,264,1.0,1.0,44,0.00,,---,0.00,VWS V14.01,2013-05-31 15:24:00,
2013-05-31 11:29:00,88.8,65.4,29.97,SE,131,0.0,0.0,46,0.00,,---,0.00,VWS V14.01,2013-05-31 15:29:00,
2013-05-31 11:34:00,89.5,63.4,29.97,North,358,2.0,3.0,42,0.00,,---,0.00,VWS V14.01,2013-05-31 15:34:00,
2013-05-31 11:39:00,88.8,62.8,29.96,ENE,58,3.0,4.0,42,0.00,,---,0.00,VWS V14.01,2013-05-31 15:39:00,
2013-05-31 11:44:00,88.4,62.4,29.96,ESE,103,5.0,6.0,42,0.00,,---,0.00,VWS V14.01,2013-05-31 15:44:00,
2013-05-31 11:49:00,88.4,63.1,29.96,ENE,70,2.0,5.0,43,0.00,,---,0.00,VWS V14.01,2013-05-31 15:49:00,
2013-05-31 11:54:00,89.1,63.7,29.96,SW,223,1.0,2.0,43,0.00,,---,0.00,VWS V14.01,2013-05-31 15:54:00,
2013-05-31 11:59:00,89.9,64.4,29.96,North,1,2.0,3.0,43,0.00,,---,0.00,VWS V14.01,2013-05-31 15:59:00,
2013-05-31 12:04:00,90.2,64.0,29.96,SE,134,7.0,7.0,42,0.00,,---,0.00,VWS V14.01,2013-05-31 16:04:00,
2013-05-31 12:09:00,89.2,63.8,29.96,ENE,73,0.0,1.0,43,0.00,,---,0.00,VWS V14.01,2013-05-31 16:09:00,
2013-05-31 12:14:00,88.9,63.5,29.95,SW,217,1.0,2.0,43,0.00,,---,0.00,VWS V14.01,2013-05-31 16:14:00,
2013-05-31 12:19:00,88.4,63.1,29.95,NNW,327,0.0,1.0,43,0.00,,---,0.00,VWS V14.01,2013-05-31 16:19:00,
2013-05-31 12:24:00,87.4,62.8,29.95,WNW,283,4.0,4.0,44,0.00,,---,0.00,VWS V14.01,2013-05-31 16:24:00,
2013-05-31 12:29:00,87.6,63.7,29.95,NNW,342,0.0,0.0,45,0.00,,---,0.00,VWS V14.01,2013-05-31 16:29:00,
2013-05-31 12:34:00,88.0,62.7,29.95,NNE,33,3.0,7.0,43,0.00,,---,0.00,VWS V14.01,2013-05-31 16:34:00,
2013-05-31 12:39:00,87.9,63.3,29.95,ENE,64,3.0,4.0,44,0.00,,---,0.00,VWS V14.01,2013-05-31 16:39:00,
2013-05-31 12:44:00,88.3,63.7,29.94,NW,305,0.0,1.0,44,0.00,,---,0.00,VWS V14.01,2013-05-31 16:44:00,
2013-05-31 12:49:00,87.8,62.5,29.94,North,359,0.0,1.0,43,0.00,,---,0.00,VWS V14.01,2013-05-31 16:49:00,
2013-05-31 12:54:00,88.6,62.6,29.94,SW,225,0.0,1.0,42,0.00,,---,0.00,VWS V14.01,2013-05-31 16:54:00,
2013-05-31 12:59:00,89.2,65.1,29.94,SE,138,0.0,0.0,45,0.00,,---,0.00,VWS V14.01,2013-05-31 16:59:00,
2013-05-31 13:04:00,89.4,61.2,29.94,South,181,2.0,6.0,39,0.00,,---,0.00,VWS V14.01,2013-05-31 17:04:00,
2013-05-31 13:09:00,88.7,62.7,29.94,NE,55,0.0,2.0,42,0.00,,---,0.00,VWS V14.01,2013-05-31 17:09:00,
2013-05-31 13:14:00,89.6,63.5,29.93,East,82,1.0,1.0,42,0.00,,---,0.00,VWS V14.01,2013-05-31 17:14:00,
2013-05-31 13:19:00,90.8,65.2,29.93,SSW,198,1.0,2.0,43,0.00,,---,0.00,VWS V14.01,2013-05-31 17:19:00,
2013-05-31 13:24:00,91.1,62.7,29.93,ESE,114,6.0,10.0,39,0.00,,---,0.00,VWS V14.01,2013-05-31 17:24:00,
2013-05-31 13:29:00,89.9,62.4,29.93,WSW,250,2.0,2.0,40,0.00,,---,0.00,VWS V14.01,2013-05-31 17:29:00,
2013-05-31 13:34:00,89.1,60.9,29.93,SE,126,2.0,6.0,39,0.00,,---,0.00,VWS V14.01,2013-05-31 17:34:00,
2013-05-31 13:39:00,89.7,64.2,29.93,South,190,3.0,5.0,43,0.00,,---,0.00,VWS V14.01,2013-05-31 17:39:00,
2013-05-31 13:44:00,90.0,63.2,29.92,East,84,3.0,4.0,41,0.00,,---,0.00,VWS V14.01,2013-05-31 17:44:00,
2013-05-31 13:49:00,89.9,61.7,29.92,SE,142,2.0,4.0,39,0.00,,---,0.00,VWS V14.01,2013-05-31 17:49:00,
2013-05-31 13:54:00,90.2,60.4,29.92,WNW,285,3.0,5.0,37,0.00,,---,0.00,VWS V14.01,2013-05-31 17:54:00,
2013-05-31 13:59:00,90.3,61.3,29.92,WSW,244,6.0,8.0,38,0.00,,---,0.00,VWS V14.01,2013-05-31 17:59:00,
2013-05-31 14:04:00,90.2,60.4,29.92,SSW,211,2.0,6.0,37,0.00,,---,0.00,VWS V14.01,2013-05-31 18:04:00,
2013-05-31 14:09:00,90.6,60.8,29.92,WNW,302,5.0,7.0,37,0.00,,---,0.00,VWS V14.01,2013-05-31 18:09:00,
2013-05-31 14:14:00,91.1,63.4,29.92,WSW,246,1.0,1.0,40,0.00,,---,0.00,VWS V14.01,2013-05-31 18:14:00,
2013-05-31 14:19:00,91.2,60.5,29.91,East,94,2.0,2.0,36,0.00,,---,0.00,VWS V14.01,2013-05-31 18:19:00,
2013-05-31 14:24:00,90.7,62.4,29.91,SSW,199,0.0,1.0,39,0.00,,---,0.00,VWS V14.01,2013-05-31 18:24:00,
2013-05-31 14:29:00,91.2,61.3,29.91,WNW,285,10.0,10.0,37,0.00,,---,0.00,VWS V14.01,2013-05-31 18:29:00,
2013-05-31 14:34:00,90.2,60.4,29.91,West,278,5.0,6.0,37,0.00,,---,0.00,VWS V14.01,2013-05-31 18:34:00,
2013-05-31 14:39:00,89.7,60.7,29.91,SW,235,5.0,5.0,38,0.00,,---,0.00,VWS V14.01,2013-05-31 18:39:00,
2013-05-31 14:44:00,89.7,60.0,29.91,ESE,111,3.0,4.0,37,0.00,,---,0.00,VWS V14.01,2013-05-31 18:44:00,
2013-05-31 14:49:00,90.0,60.3,29.91,West,280,1.0,4.0,37,0.00,,---,0.00,VWS V14.01,2013-05-31 18:49:00,
2013-05-31 14:54:00,89.8,60.1,29.91,West,269,2.0,3.0,37,0.00,,---,0.00,VWS V14.01,2013-05-31 18:54:00,
2013-05-31 14:59:00,90.5,62.2,29.91,NNW,342,2.0,2.0,39,0.00,,---,0.00,VWS V14.01,2013-05-31 18:59:00,
2013-05-31 15:04:00,91.1,61.2,29.90,ESE,108,2.0,2.0,37,0.00,,---,0.00,VWS V14.01,2013-05-31 19:04:00,
2013-05-31 15:09:00,91.3,62.2,29.90,NNE,24,1.0,1.0,38,0.00,,---,0.00,VWS V14.01,2013-05-31 19:09:00,
2013-05-31 15:14:00,90.8,59.4,29.90,WNW,285,3.0,4.0,35,0.00,,---,0.00,VWS V14.01,2013-05-31 19:14:00,
2013-05-31 15:19:00,90.6,60.8,29.90,West,269,4.0,5.0,37,0.00,,---,0.00,VWS V14.01,2013-05-31 19:19:00,
2013-05-31 15:24:00,91.1,59.7,29.90,SE,126,2.0,8.0,35,0.00,,---,0.00,VWS V14.01,2013-05-31 19:24:00,
2013-05-31 15:29:00,91.5,58.4,29.90,West,266,1.0,3.0,33,0.00,,---,0.00,VWS V14.01,2013-05-31 19:29:00,
2013-05-31 15:34:00,91.7,60.2,29.90,WNW,303,3.0,5.0,35,0.00,,---,0.00,VWS V14.01,2013-05-31 19:34:00,
2013-05-31 15:39:00,91.9,59.5,29.89,WSW,249,0.0,2.0,34,0.00,,---,0.00,VWS V14.01,2013-05-31 19:39:00,
2013-05-31 15:44:00,92.1,61.3,29.89,West,279,1.0,2.0,36,0.00,,---,0.00,VWS V14.01,2013-05-31 19:44:00,
2013-05-31 15:49:00,92.6,59.3,29.89,NE,44,1.0,4.0,33,0.00,,---,0.00,VWS V14.01,2013-05-31 19:49:00,
2013-05-31 15:54:00,93.1,59.8,29.89,SE,126,5.0,8.0,33,0.00,,---,0.00,VWS V14.01,2013-05-31 19:54:00,
2013-05-31 15:59:00,92.0,57.1,29.89,SE,131,8.0,8.0,31,0.00,,---,0.00,VWS V14.01,2013-05-31 19:59:00,
2013-05-31 16:04:00,91.9,57.9,29.89,SSE,162,2.0,2.0,32,0.00,,---,0.00,VWS V14.01,2013-05-31 20:04:00,
2013-05-31 16:09:00,92.2,53.4,29.89,West,259,7.0,7.0,27,0.00,,---,0.00,VWS V14.01,2013-05-31 20:09:00,
2013-05-31 16:14:00,91.9,53.2,29.89,NNW,348,2.0,2.0,27,0.00,,---,0.00,VWS V14.01,2013-05-31 20:14:00,
2013-05-31 16:19:00,91.4,51.7,29.88,SW,235,4.0,5.0,26,0.00,,---,0.00,VWS V14.01,2013-05-31 20:19:00,
2013-05-31 16:24:00,91.1,51.5,29.88,NW,305,2.0,6.0,26,0.00,,---,0.00,VWS V14.01,2013-05-31 20:24:00,
2013-05-31 16:29:00,91.2,51.6,29.88,SE,139,2.0,5.0,26,0.00,,---,0.00,VWS V14.01,2013-05-31 20:29:00,
2013-05-31 16:34:00,91.3,51.7,29.88,NNE,30,10.0,11.0,26,0.00,,---,0.00,VWS V14.01,2013-05-31 20:34:00,
2013-05-31 16:39:00,91.4,53.8,29.88,WNW,294,1.0,1.0,28,0.00,,---,0.00,VWS V14.01,2013-05-31 20:39:00,
2013-05-31 16:43:00,91.3,51.7,29.88,SW,226,8.0,10.0,26,0.00,,---,0.00,VWS V14.01,2013-05-31 20:43:00,
2013-05-31 16:48:00,91.1,53.5,29.88,SW,235,2.0,2.0,28,0.00,,---,0.00,VWS V14.01,2013-05-31 20:48:00,
2013-05-31 16:53:00,91.4,53.8,29.87,West,273,2.0,2.0,28,0.00,,---,0.00,VWS V14.01,2013-05-31 20:53:00,
2013-05-31 16:58:00,91.1,56.3,29.88,SW,225,7.0,7.0,31,0.00,,---,0.00,VWS V14.01,2013-05-31 20:58:00,
2013-05-31 17:03:00,90.8,55.1,29.87,West,280,3.0,3.0,30,0.00,,---,0.00,VWS V14.01,2013-05-31 21:03:00,
2013-05-31 17:08:00,91.0,55.3,29.87,WNW,302,2.0,9.0,30,0.00,,---,0.00,VWS V14.01,2013-05-31 21:08:00,
2013-05-31 17:13:00,90.8,54.2,29.86,SE,142,1.0,4.0,29,0.00,,---,0.00,VWS V14.01,2013-05-31 21:13:00,
2013-05-31 17:18:00,90.9,54.3,29.86,SSE,151,7.0,7.0,29,0.00,,---,0.00,VWS V14.01,2013-05-31 21:18:00,
2013-05-31 17:23:00,90.9,55.2,29.86,ENE,66,3.0,4.0,30,0.00,,---,0.00,VWS V14.01,2013-05-31 21:23:00,
2013-05-31 17:28:00,90.7,55.9,29.86,West,269,5.0,7.0,31,0.00,,---,0.00,VWS V14.01,2013-05-31 21:28:00,
2013-05-31 17:33:00,90.5,57.5,29.86,SE,134,1.0,1.0,33,0.00,,---,0.00,VWS V14.01,2013-05-31 21:33:00,
2013-05-31 17:38:00,90.5,56.6,29.86,East,94,1.0,2.0,32,0.00,,---,0.00,VWS V14.01,2013-05-31 21:38:00,
2013-05-31 17:43:00,90.5,54.9,29.87,NNW,335,4.0,9.0,30,0.00,,---,0.00,VWS V14.01,2013-05-31 21:43:00,
2013-05-31 17:48:00,89.9,52.5,29.87,SSE,153,1.0,6.0,28,0.00,,---,0.00,VWS V14.01,2013-05-31 21:48:00,
2013-05-31 17:53:00,89.3,52.0,29.87,WSW,243,1.0,3.0,28,0.00,,---,0.00,VWS V14.01,2013-05-31 21:53:00,
2013-05-31 17:58:00,88.9,52.6,29.87,West,259,2.0,2.0,29,0.00,,---,0.00,VWS V14.01,2013-05-31 21:58:00,
2013-05-31 18:03:00,88.4,53.1,29.86,West,280,2.0,8.0,30,0.00,,---,0.00,VWS V14.01,2013-05-31 22:03:00,
2013-05-31 18:08:00,87.8,53.4,29.86,ESE,122,3.0,5.0,31,0.00,,---,0.00,VWS V14.01,2013-05-31 22:08:00,
2013-05-31 18:13:00,87.7,54.2,29.86,SSW,198,2.0,6.0,32,0.00,,---,0.00,VWS V14.01,2013-05-31 22:13:00,
2013-05-31 18:18:00,87.4,54.0,29.86,WSW,238,2.0,4.0,32,0.00,,---,0.00,VWS V14.01,2013-05-31 22:18:00,
2013-05-31 18:23:00,87.0,55.3,29.86,North,1,1.0,3.0,34,0.00,,---,0.00,VWS V14.01,2013-05-31 22:23:00,
2013-05-31 18:28:00,86.7,55.0,29.85,West,259,4.0,5.0,34,0.00,,---,0.00,VWS V14.01,2013-05-31 22:28:00,
2013-05-31 18:33:00,86.8,54.3,29.85,WSW,252,0.0,4.0,33,0.00,,---,0.00,VWS V14.01,2013-05-31 22:33:00,
2013-05-31 18:38:00,86.6,57.2,29.86,NE,41,3.0,3.0,37,0.00,,---,0.00,VWS V14.01,2013-05-31 22:38:00,
2013-05-31 18:43:00,85.7,57.9,29.86,SSW,200,0.0,1.0,39,0.00,,---,0.00,VWS V14.01,2013-05-31 22:43:00,
2013-05-31 18:48:00,85.5,55.5,29.86,West,274,2.0,2.0,36,0.00,,---,0.00,VWS V14.01,2013-05-31 22:48:00,
2013-05-31 18:53:00,85.7,56.5,29.86,SE,131,0.0,1.0,37,0.00,,---,0.00,VWS V14.01,2013-05-31 22:53:00,
2013-05-31 18:58:00,85.2,55.3,29.86,West,281,3.0,4.0,36,0.00,,---,0.00,VWS V14.01,2013-05-31 22:58:00,
2013-05-31 19:03:00,85.2,55.3,29.86,NNW,329,1.0,4.0,36,0.00,,---,0.00,VWS V14.01,2013-05-31 23:03:00,
2013-05-31 19:08:00,84.8,56.4,29.87,WNW,283,0.0,2.0,38,0.00,,---,0.00,VWS V14.01,2013-05-31 23:08:00,
2013-05-31 19:13:00,84.4,56.0,29.87,SE,131,0.0,2.0,38,0.00,,---,0.00,VWS V14.01,2013-05-31 23:13:00,
2013-05-31 19:18:00,83.8,57.6,29.86,SE,135,0.0,0.0,41,0.00,,---,0.00,VWS V14.01,2013-05-31 23:18:00,
2013-05-31 19:23:00,83.1,56.3,29.87,ESE,123,1.0,1.0,40,0.00,,---,0.00,VWS V14.01,2013-05-31 23:23:00,
2013-05-31 19:28:00,81.5,59.3,29.87,SE,125,3.0,4.0,47,0.00,,---,0.00,VWS V14.01,2013-05-31 23:28:00,
2013-05-31 19:33:00,81.4,58.7,29.87,West,276,0.0,2.0,46,0.00,,---,0.00,VWS V14.01,2013-05-31 23:33:00,
2013-05-31 19:38:00,80.7,56.8,29.87,SSE,162,1.0,3.0,44,0.00,,---,0.00,VWS V14.01,2013-05-31 23:38:00,
2013-05-31 19:43:00,80.6,58.5,29.87,West,274,0.0,1.0,47,0.00,,---,0.00,VWS V14.01,2013-05-31 23:43:00,
2013-05-31 19:48:00,80.9,55.7,29.87,West,274,1.0,2.0,42,0.00,,---,0.00,VWS V14.01,2013-05-31 23:48:00,
2013-05-31 19:53:00,79.8,60.1,29.87,West,264,1.0,3.0,51,0.00,,---,0.00,VWS V14.01,2013-05-31 23:53:00,
2013-05-31 19:58:00,78.4,59.9,29.87,SE,129,0.0,0.0,53,0.00,,---,0.00,VWS V14.01,2013-05-31 23:58:00,
2013-05-31 20:03:00,76.6,61.2,29.87,ESE,103,1.0,2.0,59,0.00,,---,0.00,VWS V14.01,2013-06-01 00:03:00,
2013-05-31 20:08:00,75.6,62.1,29.87,ESE,109,1.0,1.0,63,0.00,,---,0.00,VWS V14.01,2013-06-01 00:08:00,
2013-05-31 20:13:00,74.3,61.8,29.88,ENE,64,2.0,2.0,65,0.00,,---,0.00,VWS V14.01,2013-06-01 00:13:00,
2013-05-31 20:18:00,73.3,61.3,29.88,ESE,103,3.0,3.0,66,0.00,,---,0.00,VWS V14.01,2013-06-01 00:18:00,
2013-05-31 20:23:00,72.6,61.9,29.88,WNW,291,0.0,0.0,69,0.00,,---,0.00,VWS V14.01,2013-06-01 00:23:00,
2013-05-31 20:28:00,71.8,61.9,29.88,WNW,294,0.0,0.0,71,0.00,,---,0.00,VWS V14.01,2013-06-01 00:28:00,
2013-05-31 20:33:00,70.8,61.3,29.88,West,260,2.0,2.0,72,0.00,,---,0.00,VWS V14.01,2013-06-01 00:33:00,
2013-05-31 20:38:00,70.2,60.4,29.88,WSW,255,0.0,0.0,71,0.00,,---,0.00,VWS V14.01,2013-06-01 00:38:00,
2013-05-31 20:43:00,69.7,61.0,29.87,NE,41,1.0,2.0,74,0.00,,---,0.00,VWS V14.01,2013-06-01 00:43:00,
2013-05-31 20:48:00,69.0,60.4,29.88,WSW,253,1.0,1.0,74,0.00,,---,0.00,VWS V14.01,2013-06-01 00:48:00,
2013-05-31 20:53:00,68.4,60.5,29.88,ENE,66,1.0,1.0,76,0.00,,---,0.00,VWS V14.01,2013-06-01 00:53:00,
2013-05-31 20:58:00,68.1,60.6,29.88,ENE,77,1.0,1.0,77,0.00,,---,0.00,VWS V14.01,2013-06-01 00:58:00,
2013-05-31 21:03:00,67.7,60.2,29.88,ESE,106,1.0,2.0,77,0.00,,---,0.00,VWS V14.01,2013-06-01 01:03:00,
2013-05-31 21:08:00,67.6,60.1,29.88,WSW,246,0.0,0.0,77,0.00,,---,0.00,VWS V14.01,2013-06-01 01:08:00,
2013-05-31 21:13:00,67.3,60.2,29.88,WSW,245,0.0,0.0,78,0.00,,---,0.00,VWS V14.01,2013-06-01 01:13:00,
2013-05-31 21:18:00,66.9,59.8,29.89,WSW,246,0.0,0.0,78,0.00,,---,0.00,VWS V14.01,2013-06-01 01:18:00,
2013-05-31 21:23:00,66.6,59.9,29.89,WSW,245,0.0,1.0,79,0.00,,---,0.00,VWS V14.01,2013-06-01 01:23:00,
2013-05-31 21:28:00,66.3,60.0,29.89,WSW,245,0.0,0.0,80,0.00,,---,0.00,VWS V14.01,2013-06-01 01:28:00,
2013-05-31 21:33:00,65.7,60.1,29.89,East,96,2.0,2.0,82,0.00,,---,0.00,VWS V14.01,2013-06-01 01:33:00,
2013-05-31 21:38:00,65.6,60.3,29.89,WSW,240,0.0,1.0,83,0.00,,---,0.00,VWS V14.01,2013-06-01 01:38:00,
2013-05-31 21:43:00,65.3,60.0,29.89,WSW,240,0.0,0.0,83,0.00,,---,0.00,VWS V14.01,2013-06-01 01:43:00,
2013-05-31 21:48:00,64.9,60.0,29.90,WSW,240,0.0,0.0,84,0.00,,---,0.00,VWS V14.01,2013-06-01 01:48:00,
2013-05-31 21:53:00,64.6,59.7,29.90,WSW,240,0.0,0.0,84,0.00,,---,0.00,VWS V14.01,2013-06-01 01:53:00,
2013-05-31 21:58:00,64.4,59.8,29.90,WSW,240,0.0,0.0,85,0.00,,---,0.00,VWS V14.01,2013-06-01 01:58:00,
2013-05-31 22:03:00,64.2,59.6,29.90,WSW,240,0.0,0.0,85,0.00,,---,0.00,VWS V14.01,2013-06-01 02:03:00,
2013-05-31 22:08:00,64.0,59.7,29.90,WSW,241,0.0,0.0,86,0.00,,---,0.00,VWS V14.01,2013-06-01 02:08:00,
2013-05-31 22:13:00,63.7,59.4,29.90,WSW,241,0.0,0.0,86,0.00,,---,0.00,VWS V14.01,2013-06-01 02:13:00,
2013-05-31 22:18:00,63.5,59.6,29.90,WSW,240,0.0,0.0,87,0.00,,---,0.00,VWS V14.01,2013-06-01 02:18:00,
2013-05-31 22:23:00,63.2,59.3,29.90,WSW,241,1.0,1.0,87,0.00,,---,0.00,VWS V14.01,2013-06-01 02:23:00,
2013-05-31 22:28:00,63.1,59.2,29.90,WSW,240,0.0,0.0,87,0.00,,---,0.00,VWS V14.01,2013-06-01 02:28:00,
2013-05-31 22:33:00,62.9,59.3,29.90,WSW,241,1.0,1.0,88,0.00,,---,0.00,VWS V14.01,2013-06-01 02:33:00,
2013-05-31 22:38:00,62.8,59.5,29.90,SSW,201,1.0,1.0,89,0.00,,---,0.00,VWS V14.01,2013-06-01 02:38:00,
2013-05-31 22:43:00,62.7,59.4,29.90,SSW,201,0.0,0.0,89,0.00,,---,0.00,VWS V14.01,2013-06-01 02:43:00,
2013-05-31 22:48:00,62.6,59.3,29.90,SSW,201,0.0,0.0,89,0.00,,---,0.00,VWS V14.01,2013-06-01 02:48:00,
2013-05-31 22:53:00,62.3,59.0,29.90,SSW,201,0.0,0.0,89,0.00,,---,0.00,VWS V14.01,2013-06-01 02:53:00,
2013-05-31 22:58:00,62.1,59.1,29.90,SSW,201,0.0,0.0,90,0.00,,---,0.00,VWS V14.01,2013-06-01 02:58:00,
2013-05-31 23:03:00,62.0,59.0,29.90,SSW,201,0.0,0.0,90,0.00,,---,0.00,VWS V14.01,2013-06-01 03:03:00,
2013-05-31 23:08:00,61.9,58.9,29.90,SSW,201,0.0,0.0,90,0.00,,---,0.00,VWS V14.01,2013-06-01 03:08:00,
2013-05-31 23:12:00,61.7,59.0,29.90,SSW,201,0.0,0.0,91,0.00,,---,0.00,VWS V14.01,2013-06-01 03:12:00,
2013-05-31 23:17:00,61.6,59.0,29.89,SSW,201,0.0,0.0,91,0.00,,---,0.00,VWS V14.01,2013-06-01 03:17:00,
2013-05-31 23:22:00,61.4,58.8,29.90,SSW,201,1.0,1.0,91,0.00,,---,0.00,VWS V14.01,2013-06-01 03:22:00,
2013-05-31 23:27:00,61.3,58.7,29.89,SSW,201,0.0,0.0,91,0.00,,---,0.00,VWS V14.01,2013-06-01 03:27:00,
2013-05-31 23:32:00,61.2,58.6,29.89,SSW,204,0.0,1.0,91,0.00,,---,0.00,VWS V14.01,2013-06-01 03:32:00,
2013-05-31 23:37:00,61.0,58.7,29.89,SSW,204,0.0,0.0,92,0.00,,---,0.00,VWS V14.01,2013-06-01 03:37:00,
2013-05-31 23:42:00,61.0,58.7,29.89,West,259,1.0,1.0,92,0.00,,---,0.00,VWS V14.01,2013-06-01 03:42:00,
2013-05-31 23:47:00,61.1,58.8,29.89,West,269,0.0,1.0,92,0.00,,---,0.00,VWS V14.01,2013-06-01 03:47:00,
2013-05-31 23:52:00,60.9,58.6,29.89,West,268,1.0,1.0,92,0.00,,---,0.00,VWS V14.01,2013-06-01 03:52:00,
2013-05-31 23:57:00,60.8,58.5,29.89,West,267,0.0,0.0,92,0.00,,---,0.00,VWS V14.01,2013-06-01 03:57:00,